owner,sensor,date,latitude,longitude,air_temperature,qcFlag 
COMPS,ioos:station:USF.COMPS:ANM:1,2013-04-01T00:00:00Z,27.5400,-82.7400,19.55,1111122 
COMPS,ioos:station:USF.COMPS:ANM:1,2013-04-01T00:06:00Z,27.5400,-82.7400,19.45,1111122 
COMPS,ioos:station:USF.COMPS:ANM:1,2013-04-01T00:12:00Z,27.5400,-82.7400,19.39,1111122 
COMPS,ioos:station:USF.COMPS:ANM:1,2013-04-01T00:18:00Z,27.5400,-82.7400,19.32,1111122 
COMPS,ioos:station:USF.COMPS:ANM:1,2013-04-01T00:24:00Z,27.5400,-82.7400,19.32,1111122 
COMPS,ioos:station:USF.COMPS:ANM:1,2013-04-01T00:30:00Z,27.5400,-82.7400,19.26,1111122 
COMPS,ioos:station:USF.COMPS:ANM:1,2013-04-01T00:36:00Z,27.5400,-82.7400,19.2,1111122 
COMPS,ioos:station:USF.COMPS:ANM:1,2013-04-01T00:42:00Z,27.5400,-82.7400,19.2,1111122 
COMPS,ioos:station:USF.COMPS:ANM:1,2013-04-01T00:48:00Z,27.5400,-82.7400,19.2,1111122 
COMPS,ioos:station:USF.COMPS:ANM:1,2013-04-01T00:54:00Z,27.5400,-82.7400,19.22,1111122 
COMPS,ioos:station:USF.COMPS:ANM:1,2013-04-01T01:00:00Z,27.5400,-82.7400,19.2,1111122 
COMPS,ioos:station:USF.COMPS:ANM:1,2013-04-01T01:06:00Z,27.5400,-82.7400,19.21,1111122 
COMPS,ioos:station:USF.COMPS:ANM:1,2013-04-01T01:12:00Z,27.5400,-82.7400,19.19,1111122 
COMPS,ioos:station:USF.COMPS:ANM:1,2013-04-01T01:18:00Z,27.5400,-82.7400,19.07,1111122 
COMPS,ioos:station:USF.COMPS:ANM:1,2013-04-01T01:24:00Z,27.5400,-82.7400,18.99,1111122 
COMPS,ioos:station:USF.COMPS:ANM:1,2013-04-01T01:30:00Z,27.5400,-82.7400,18.94,1111122 
COMPS,ioos:station:USF.COMPS:ANM:1,2013-04-01T01:36:00Z,27.5400,-82.7400,18.94,1111122 
COMPS,ioos:station:USF.COMPS:ANM:1,2013-04-01T01:42:00Z,27.5400,-82.7400,18.94,1111122 
COMPS,ioos:station:USF.COMPS:ANM:1,2013-04-01T01:48:00Z,27.5400,-82.7400,18.94,1111122 
COMPS,ioos:station:USF.COMPS:ANM:1,2013-04-01T01:54:00Z,27.5400,-82.7400,18.93,1111122 
COMPS,ioos:station:USF.COMPS:ANM:1,2013-04-01T02:00:00Z,27.5400,-82.7400,18.94,1111122 
COMPS,ioos:station:USF.COMPS:ANM:1,2013-04-01T02:06:00Z,27.5400,-82.7400,18.95,1111122 
COMPS,ioos:station:USF.COMPS:ANM:1,2013-04-01T02:12:00Z,27.5400,-82.7400,19.0,1111122 
COMPS,ioos:station:USF.COMPS:ANM:1,2013-04-01T02:18:00Z,27.5400,-82.7400,19.07,1111122 
COMPS,ioos:station:USF.COMPS:ANM:1,2013-04-01T02:24:00Z,27.5400,-82.7400,19.06,1111122 
COMPS,ioos:station:USF.COMPS:ANM:1,2013-04-01T02:30:00Z,27.5400,-82.7400,18.95,1111122 
COMPS,ioos:station:USF.COMPS:ANM:1,2013-04-01T02:36:00Z,27.5400,-82.7400,18.94,1111122 
COMPS,ioos:station:USF.COMPS:ANM:1,2013-04-01T02:42:00Z,27.5400,-82.7400,18.96,1111122 
COMPS,ioos:station:USF.COMPS:ANM:1,2013-04-01T02:48:00Z,27.5400,-82.7400,18.94,1111122 
COMPS,ioos:station:USF.COMPS:ANM:1,2013-04-01T02:54:00Z,27.5400,-82.7400,18.9,1111122 
COMPS,ioos:station:USF.COMPS:ANM:1,2013-04-01T03:00:00Z,27.5400,-82.7400,18.8,1111122 
COMPS,ioos:station:USF.COMPS:ANM:1,2013-04-01T03:06:00Z,27.5400,-82.7400,18.8,1111122 
COMPS,ioos:station:USF.COMPS:ANM:1,2013-04-01T03:12:00Z,27.5400,-82.7400,18.8,1111122 
COMPS,ioos:station:USF.COMPS:ANM:1,2013-04-01T03:18:00Z,27.5400,-82.7400,18.8,1111122 
COMPS,ioos:station:USF.COMPS:ANM:1,2013-04-01T03:24:00Z,27.5400,-82.7400,18.8,1111122 
COMPS,ioos:station:USF.COMPS:ANM:1,2013-04-01T03:30:00Z,27.5400,-82.7400,18.8,1111122 
COMPS,ioos:station:USF.COMPS:ANM:1,2013-04-01T03:36:00Z,27.5400,-82.7400,18.81,1111122 
COMPS,ioos:station:USF.COMPS:ANM:1,2013-04-01T03:42:00Z,27.5400,-82.7400,18.81,1111122 
COMPS,ioos:station:USF.COMPS:ANM:1,2013-04-01T03:48:00Z,27.5400,-82.7400,18.81,1111122 
COMPS,ioos:station:USF.COMPS:ANM:1,2013-04-01T03:54:00Z,27.5400,-82.7400,18.81,1111122 
COMPS,ioos:station:USF.COMPS:ANM:1,2013-04-01T04:00:00Z,27.5400,-82.7400,18.8,1111122 
COMPS,ioos:station:USF.COMPS:ANM:1,2013-04-01T04:06:00Z,27.5400,-82.7400,18.83,1111122 
COMPS,ioos:station:USF.COMPS:ANM:1,2013-04-01T04:12:00Z,27.5400,-82.7400,18.86,1111122 
COMPS,ioos:station:USF.COMPS:ANM:1,2013-04-01T04:18:00Z,27.5400,-82.7400,18.93,1111122 
COMPS,ioos:station:USF.COMPS:ANM:1,2013-04-01T04:24:00Z,27.5400,-82.7400,18.95,1111122 
COMPS,ioos:station:USF.COMPS:ANM:1,2013-04-01T04:30:00Z,27.5400,-82.7400,18.96,1111122 
COMPS,ioos:station:USF.COMPS:ANM:1,2013-04-01T04:36:00Z,27.5400,-82.7400,18.97,1111122 
COMPS,ioos:station:USF.COMPS:ANM:1,2013-04-01T04:42:00Z,27.5400,-82.7400,18.86,1111122 
COMPS,ioos:station:USF.COMPS:ANM:1,2013-04-01T04:48:00Z,27.5400,-82.7400,18.83,1111122 
COMPS,ioos:station:USF.COMPS:ANM:1,2013-04-01T04:54:00Z,27.5400,-82.7400,18.94,1111122 
COMPS,ioos:station:USF.COMPS:ANM:1,2013-04-01T05:00:00Z,27.5400,-82.7400,18.96,1111122 
COMPS,ioos:station:USF.COMPS:ANM:1,2013-04-01T05:06:00Z,27.5400,-82.7400,18.97,1111122 
COMPS,ioos:station:USF.COMPS:ANM:1,2013-04-01T05:12:00Z,27.5400,-82.7400,18.96,1111122 
COMPS,ioos:station:USF.COMPS:ANM:1,2013-04-01T05:18:00Z,27.5400,-82.7400,18.97,1111122 
COMPS,ioos:station:USF.COMPS:ANM:1,2013-04-01T05:24:00Z,27.5400,-82.7400,18.97,1111122 
COMPS,ioos:station:USF.COMPS:ANM:1,2013-04-01T05:30:00Z,27.5400,-82.7400,18.97,1111122 
COMPS,ioos:station:USF.COMPS:ANM:1,2013-04-01T05:36:00Z,27.5400,-82.7400,18.97,1111122 
COMPS,ioos:station:USF.COMPS:ANM:1,2013-04-01T05:42:00Z,27.5400,-82.7400,18.97,1111122 
COMPS,ioos:station:USF.COMPS:ANM:1,2013-04-01T05:48:00Z,27.5400,-82.7400,18.97,1111122 
COMPS,ioos:station:USF.COMPS:ANM:1,2013-04-01T05:54:00Z,27.5400,-82.7400,18.96,1111122 
COMPS,ioos:station:USF.COMPS:ANM:1,2013-04-01T06:00:00Z,27.5400,-82.7400,19.0,1111122 
COMPS,ioos:station:USF.COMPS:ANM:1,2013-04-01T06:06:00Z,27.5400,-82.7400,18.96,1111122 
COMPS,ioos:station:USF.COMPS:ANM:1,2013-04-01T06:12:00Z,27.5400,-82.7400,18.95,1111122 
COMPS,ioos:station:USF.COMPS:ANM:1,2013-04-01T06:18:00Z,27.5400,-82.7400,18.95,1111122 
COMPS,ioos:station:USF.COMPS:ANM:1,2013-04-01T06:24:00Z,27.5400,-82.7400,18.83,1111122 
COMPS,ioos:station:USF.COMPS:ANM:1,2013-04-01T06:30:00Z,27.5400,-82.7400,18.91,1111122 
COMPS,ioos:station:USF.COMPS:ANM:1,2013-04-01T06:36:00Z,27.5400,-82.7400,18.96,1111122 
COMPS,ioos:station:USF.COMPS:ANM:1,2013-04-01T06:42:00Z,27.5400,-82.7400,18.97,1111122 
COMPS,ioos:station:USF.COMPS:ANM:1,2013-04-01T06:48:00Z,27.5400,-82.7400,18.96,1111122 
COMPS,ioos:station:USF.COMPS:ANM:1,2013-04-01T06:54:00Z,27.5400,-82.7400,19.07,1111122 
COMPS,ioos:station:USF.COMPS:ANM:1,2013-04-01T07:00:00Z,27.5400,-82.7400,19.1,1111122 
COMPS,ioos:station:USF.COMPS:ANM:1,2013-04-01T07:06:00Z,27.5400,-82.7400,19.1,1111122 
COMPS,ioos:station:USF.COMPS:ANM:1,2013-04-01T07:12:00Z,27.5400,-82.7400,19.1,1111122 
COMPS,ioos:station:USF.COMPS:ANM:1,2013-04-01T07:18:00Z,27.5400,-82.7400,19.1,1111122 
COMPS,ioos:station:USF.COMPS:ANM:1,2013-04-01T07:24:00Z,27.5400,-82.7400,19.1,1111122 
COMPS,ioos:station:USF.COMPS:ANM:1,2013-04-01T07:30:00Z,27.5400,-82.7400,19.1,1111122 
COMPS,ioos:station:USF.COMPS:ANM:1,2013-04-01T07:36:00Z,27.5400,-82.7400,19.04,1111122 
COMPS,ioos:station:USF.COMPS:ANM:1,2013-04-01T07:42:00Z,27.5400,-82.7400,18.96,1111122 
COMPS,ioos:station:USF.COMPS:ANM:1,2013-04-01T07:48:00Z,27.5400,-82.7400,18.96,1111122 
COMPS,ioos:station:USF.COMPS:ANM:1,2013-04-01T07:54:00Z,27.5400,-82.7400,18.96,1111122 
COMPS,ioos:station:USF.COMPS:ANM:1,2013-04-01T08:00:00Z,27.5400,-82.7400,19.0,1111122 
COMPS,ioos:station:USF.COMPS:ANM:1,2013-04-01T08:06:00Z,27.5400,-82.7400,19.07,1111122 
COMPS,ioos:station:USF.COMPS:ANM:1,2013-04-01T08:12:00Z,27.5400,-82.7400,19.1,1111122 
COMPS,ioos:station:USF.COMPS:ANM:1,2013-04-01T08:18:00Z,27.5400,-82.7400,19.1,1111122 
COMPS,ioos:station:USF.COMPS:ANM:1,2013-04-01T08:24:00Z,27.5400,-82.7400,19.06,1111122 
COMPS,ioos:station:USF.COMPS:ANM:1,2013-04-01T08:30:00Z,27.5400,-82.7400,18.96,1111122 
COMPS,ioos:station:USF.COMPS:ANM:1,2013-04-01T08:36:00Z,27.5400,-82.7400,18.96,1111122 
COMPS,ioos:station:USF.COMPS:ANM:1,2013-04-01T08:42:00Z,27.5400,-82.7400,18.9,1111122 
COMPS,ioos:station:USF.COMPS:ANM:1,2013-04-01T08:48:00Z,27.5400,-82.7400,18.83,1111122 
COMPS,ioos:station:USF.COMPS:ANM:1,2013-04-01T08:54:00Z,27.5400,-82.7400,18.83,1111122 
COMPS,ioos:station:USF.COMPS:ANM:1,2013-04-01T09:00:00Z,27.5400,-82.7400,18.8,1111122 
COMPS,ioos:station:USF.COMPS:ANM:1,2013-04-01T09:06:00Z,27.5400,-82.7400,18.69,1111122 
COMPS,ioos:station:USF.COMPS:ANM:1,2013-04-01T09:12:00Z,27.5400,-82.7400,18.69,1111122 
COMPS,ioos:station:USF.COMPS:ANM:1,2013-04-01T09:18:00Z,27.5400,-82.7400,18.69,1111122 
COMPS,ioos:station:USF.COMPS:ANM:1,2013-04-01T09:24:00Z,27.5400,-82.7400,18.69,1111122 
COMPS,ioos:station:USF.COMPS:ANM:1,2013-04-01T09:30:00Z,27.5400,-82.7400,18.69,1111122 
COMPS,ioos:station:USF.COMPS:ANM:1,2013-04-01T09:36:00Z,27.5400,-82.7400,18.69,1111122 
COMPS,ioos:station:USF.COMPS:ANM:1,2013-04-01T09:42:00Z,27.5400,-82.7400,18.69,1111122 
COMPS,ioos:station:USF.COMPS:ANM:1,2013-04-01T09:48:00Z,27.5400,-82.7400,18.69,1111122 
COMPS,ioos:station:USF.COMPS:ANM:1,2013-04-01T09:54:00Z,27.5400,-82.7400,18.69,1111122 
COMPS,ioos:station:USF.COMPS:ANM:1,2013-04-01T10:00:00Z,27.5400,-82.7400,18.69,1111122 
COMPS,ioos:station:USF.COMPS:ANM:1,2013-04-01T10:06:00Z,27.5400,-82.7400,18.69,1111122 
COMPS,ioos:station:USF.COMPS:ANM:1,2013-04-01T10:12:00Z,27.5400,-82.7400,18.69,1111122 
COMPS,ioos:station:USF.COMPS:ANM:1,2013-04-01T10:18:00Z,27.5400,-82.7400,18.68,1111122 
COMPS,ioos:station:USF.COMPS:ANM:1,2013-04-01T10:24:00Z,27.5400,-82.7400,18.69,1111122 
COMPS,ioos:station:USF.COMPS:ANM:1,2013-04-01T10:30:00Z,27.5400,-82.7400,18.69,1111122 
COMPS,ioos:station:USF.COMPS:ANM:1,2013-04-01T10:36:00Z,27.5400,-82.7400,18.69,1111122 
COMPS,ioos:station:USF.COMPS:ANM:1,2013-04-01T10:42:00Z,27.5400,-82.7400,18.71,1111122 
COMPS,ioos:station:USF.COMPS:ANM:1,2013-04-01T10:48:00Z,27.5400,-82.7400,18.82,1111122 
COMPS,ioos:station:USF.COMPS:ANM:1,2013-04-01T10:54:00Z,27.5400,-82.7400,18.83,1111122 
COMPS,ioos:station:USF.COMPS:ANM:1,2013-04-01T11:00:00Z,27.5400,-82.7400,18.8,1111122 
COMPS,ioos:station:USF.COMPS:ANM:1,2013-04-01T11:06:00Z,27.5400,-82.7400,18.83,1111122 
COMPS,ioos:station:USF.COMPS:ANM:1,2013-04-01T11:12:00Z,27.5400,-82.7400,18.83,1111122 
COMPS,ioos:station:USF.COMPS:ANM:1,2013-04-01T11:18:00Z,27.5400,-82.7400,18.83,1111122 
COMPS,ioos:station:USF.COMPS:ANM:1,2013-04-01T11:24:00Z,27.5400,-82.7400,18.83,1111122 
COMPS,ioos:station:USF.COMPS:ANM:1,2013-04-01T11:30:00Z,27.5400,-82.7400,18.83,1111122 
COMPS,ioos:station:USF.COMPS:ANM:1,2013-04-01T11:36:00Z,27.5400,-82.7400,18.83,1111122 
COMPS,ioos:station:USF.COMPS:ANM:1,2013-04-01T11:42:00Z,27.5400,-82.7400,18.84,1111122 
COMPS,ioos:station:USF.COMPS:ANM:1,2013-04-01T11:48:00Z,27.5400,-82.7400,18.83,1111122 
COMPS,ioos:station:USF.COMPS:ANM:1,2013-04-01T11:54:00Z,27.5400,-82.7400,18.83,1111122 
COMPS,ioos:station:USF.COMPS:ANM:1,2013-04-01T12:00:00Z,27.5400,-82.7400,18.83,1111122 
COMPS,ioos:station:USF.COMPS:ANM:1,2013-04-01T12:06:00Z,27.5400,-82.7400,18.92,1111122 
COMPS,ioos:station:USF.COMPS:ANM:1,2013-04-01T12:12:00Z,27.5400,-82.7400,18.97,1111122 
COMPS,ioos:station:USF.COMPS:ANM:1,2013-04-01T12:18:00Z,27.5400,-82.7400,19.08,1111122 
COMPS,ioos:station:USF.COMPS:ANM:1,2013-04-01T12:24:00Z,27.5400,-82.7400,19.14,1111122 
COMPS,ioos:station:USF.COMPS:ANM:1,2013-04-01T12:30:00Z,27.5400,-82.7400,19.23,1111122 
COMPS,ioos:station:USF.COMPS:ANM:1,2013-04-01T12:36:00Z,27.5400,-82.7400,19.29,1111122 
COMPS,ioos:station:USF.COMPS:ANM:1,2013-04-01T12:42:00Z,27.5400,-82.7400,19.37,1111122 
COMPS,ioos:station:USF.COMPS:ANM:1,2013-04-01T12:48:00Z,27.5400,-82.7400,19.36,1111122 
COMPS,ioos:station:USF.COMPS:ANM:1,2013-04-01T12:54:00Z,27.5400,-82.7400,19.37,1111122 
COMPS,ioos:station:USF.COMPS:ANM:1,2013-04-01T13:00:00Z,27.5400,-82.7400,19.4,1111122 
COMPS,ioos:station:USF.COMPS:ANM:1,2013-04-01T13:06:00Z,27.5400,-82.7400,19.5,1111122 
COMPS,ioos:station:USF.COMPS:ANM:1,2013-04-01T13:12:00Z,27.5400,-82.7400,19.45,1111122 
COMPS,ioos:station:USF.COMPS:ANM:1,2013-04-01T13:18:00Z,27.5400,-82.7400,19.63,1111122 
COMPS,ioos:station:USF.COMPS:ANM:1,2013-04-01T13:24:00Z,27.5400,-82.7400,19.82,1111122 
COMPS,ioos:station:USF.COMPS:ANM:1,2013-04-01T13:30:00Z,27.5400,-82.7400,19.91,1111122 
COMPS,ioos:station:USF.COMPS:ANM:1,2013-04-01T13:36:00Z,27.5400,-82.7400,20.01,1111122 
COMPS,ioos:station:USF.COMPS:ANM:1,2013-04-01T13:42:00Z,27.5400,-82.7400,20.03,1111122 
COMPS,ioos:station:USF.COMPS:ANM:1,2013-04-01T13:48:00Z,27.5400,-82.7400,20.28,1111122 
COMPS,ioos:station:USF.COMPS:ANM:1,2013-04-01T13:54:00Z,27.5400,-82.7400,20.55,1111122 
COMPS,ioos:station:USF.COMPS:ANM:1,2013-04-01T14:00:00Z,27.5400,-82.7400,20.6,1111122 
COMPS,ioos:station:USF.COMPS:ANM:1,2013-04-01T14:06:00Z,27.5400,-82.7400,20.6,1111122 
COMPS,ioos:station:USF.COMPS:ANM:1,2013-04-01T14:12:00Z,27.5400,-82.7400,20.78,1111122 
COMPS,ioos:station:USF.COMPS:ANM:1,2013-04-01T14:18:00Z,27.5400,-82.7400,20.89,1111122 
COMPS,ioos:station:USF.COMPS:ANM:1,2013-04-01T14:24:00Z,27.5400,-82.7400,20.9,1111122 
COMPS,ioos:station:USF.COMPS:ANM:1,2013-04-01T14:30:00Z,27.5400,-82.7400,21.11,1111122 
COMPS,ioos:station:USF.COMPS:ANM:1,2013-04-01T14:36:00Z,27.5400,-82.7400,21.31,1111122 
COMPS,ioos:station:USF.COMPS:ANM:1,2013-04-01T14:42:00Z,27.5400,-82.7400,21.51,1111122 
COMPS,ioos:station:USF.COMPS:ANM:1,2013-04-01T14:48:00Z,27.5400,-82.7400,21.79,1111122 
COMPS,ioos:station:USF.COMPS:ANM:1,2013-04-01T14:54:00Z,27.5400,-82.7400,21.79,1111122 
COMPS,ioos:station:USF.COMPS:ANM:1,2013-04-01T15:00:00Z,27.5400,-82.7400,21.8,1111122 
COMPS,ioos:station:USF.COMPS:ANM:1,2013-04-01T15:06:00Z,27.5400,-82.7400,21.78,1111122 
COMPS,ioos:station:USF.COMPS:ANM:1,2013-04-01T15:12:00Z,27.5400,-82.7400,21.88,1111122 
COMPS,ioos:station:USF.COMPS:ANM:1,2013-04-01T15:18:00Z,27.5400,-82.7400,21.57,1111122 
COMPS,ioos:station:USF.COMPS:ANM:1,2013-04-01T15:24:00Z,27.5400,-82.7400,21.62,1111122 
COMPS,ioos:station:USF.COMPS:ANM:1,2013-04-01T15:30:00Z,27.5400,-82.7400,21.72,1111122 
COMPS,ioos:station:USF.COMPS:ANM:1,2013-04-01T15:36:00Z,27.5400,-82.7400,21.86,1111122 
COMPS,ioos:station:USF.COMPS:ANM:1,2013-04-01T15:42:00Z,27.5400,-82.7400,21.73,1111122 
COMPS,ioos:station:USF.COMPS:ANM:1,2013-04-01T15:48:00Z,27.5400,-82.7400,21.83,1111122 
COMPS,ioos:station:USF.COMPS:ANM:1,2013-04-01T15:54:00Z,27.5400,-82.7400,22.12,1111122 
COMPS,ioos:station:USF.COMPS:ANM:1,2013-04-01T16:00:00Z,27.5400,-82.7400,22.1,1111122 
COMPS,ioos:station:USF.COMPS:ANM:1,2013-04-01T16:06:00Z,27.5400,-82.7400,21.89,1111122 
COMPS,ioos:station:USF.COMPS:ANM:1,2013-04-01T16:12:00Z,27.5400,-82.7400,21.96,1111122 
COMPS,ioos:station:USF.COMPS:ANM:1,2013-04-01T16:18:00Z,27.5400,-82.7400,21.93,1111122 
COMPS,ioos:station:USF.COMPS:ANM:1,2013-04-01T16:24:00Z,27.5400,-82.7400,21.95,1111122 
COMPS,ioos:station:USF.COMPS:ANM:1,2013-04-01T16:30:00Z,27.5400,-82.7400,21.7,1111122 
COMPS,ioos:station:USF.COMPS:ANM:1,2013-04-01T16:36:00Z,27.5400,-82.7400,21.86,1111122 
COMPS,ioos:station:USF.COMPS:ANM:1,2013-04-01T16:42:00Z,27.5400,-82.7400,22.11,1111122 
COMPS,ioos:station:USF.COMPS:ANM:1,2013-04-01T16:48:00Z,27.5400,-82.7400,21.54,1111122 
COMPS,ioos:station:USF.COMPS:ANM:1,2013-04-01T16:54:00Z,27.5400,-82.7400,21.77,1111122 
COMPS,ioos:station:USF.COMPS:ANM:1,2013-04-01T17:00:00Z,27.5400,-82.7400,21.8,1111122 
COMPS,ioos:station:USF.COMPS:ANM:1,2013-04-01T17:06:00Z,27.5400,-82.7400,22.53,1111122 
COMPS,ioos:station:USF.COMPS:ANM:1,2013-04-01T17:12:00Z,27.5400,-82.7400,22.37,1111122 
COMPS,ioos:station:USF.COMPS:ANM:1,2013-04-01T17:18:00Z,27.5400,-82.7400,22.53,1111122 
COMPS,ioos:station:USF.COMPS:ANM:1,2013-04-01T17:24:00Z,27.5400,-82.7400,22.6,1111122 
COMPS,ioos:station:USF.COMPS:ANM:1,2013-04-01T17:30:00Z,27.5400,-82.7400,22.46,1111122 
COMPS,ioos:station:USF.COMPS:ANM:1,2013-04-01T17:36:00Z,27.5400,-82.7400,21.84,1111122 
COMPS,ioos:station:USF.COMPS:ANM:1,2013-04-01T17:42:00Z,27.5400,-82.7400,21.78,1111122 
COMPS,ioos:station:USF.COMPS:ANM:1,2013-04-01T17:48:00Z,27.5400,-82.7400,21.62,1111122 
COMPS,ioos:station:USF.COMPS:ANM:1,2013-04-01T17:54:00Z,27.5400,-82.7400,21.97,1111122 
COMPS,ioos:station:USF.COMPS:ANM:1,2013-04-01T18:00:00Z,27.5400,-82.7400,22.0,1111122 
COMPS,ioos:station:USF.COMPS:ANM:1,2013-04-01T18:06:00Z,27.5400,-82.7400,22.28,1111122 
COMPS,ioos:station:USF.COMPS:ANM:1,2013-04-01T18:12:00Z,27.5400,-82.7400,22.27,1111122 
COMPS,ioos:station:USF.COMPS:ANM:1,2013-04-01T18:18:00Z,27.5400,-82.7400,22.48,1111122 
COMPS,ioos:station:USF.COMPS:ANM:1,2013-04-01T18:24:00Z,27.5400,-82.7400,22.48,1111122 
COMPS,ioos:station:USF.COMPS:ANM:1,2013-04-01T18:30:00Z,27.5400,-82.7400,22.1,1111122 
COMPS,ioos:station:USF.COMPS:ANM:1,2013-04-01T18:36:00Z,27.5400,-82.7400,22.24,1111122 
COMPS,ioos:station:USF.COMPS:ANM:1,2013-04-01T18:42:00Z,27.5400,-82.7400,22.19,1111122 
COMPS,ioos:station:USF.COMPS:ANM:1,2013-04-01T18:48:00Z,27.5400,-82.7400,22.0,1111122 
COMPS,ioos:station:USF.COMPS:ANM:1,2013-04-01T18:54:00Z,27.5400,-82.7400,22.66,1111122 
COMPS,ioos:station:USF.COMPS:ANM:1,2013-04-01T19:00:00Z,27.5400,-82.7400,22.7,1111122 
COMPS,ioos:station:USF.COMPS:ANM:1,2013-04-01T19:06:00Z,27.5400,-82.7400,22.51,1111122 
COMPS,ioos:station:USF.COMPS:ANM:1,2013-04-01T19:12:00Z,27.5400,-82.7400,22.99,1111122 
COMPS,ioos:station:USF.COMPS:ANM:1,2013-04-01T19:18:00Z,27.5400,-82.7400,22.82,1111122 
COMPS,ioos:station:USF.COMPS:ANM:1,2013-04-01T19:24:00Z,27.5400,-82.7400,22.57,1111122 
COMPS,ioos:station:USF.COMPS:ANM:1,2013-04-01T19:30:00Z,27.5400,-82.7400,22.79,1111122 
COMPS,ioos:station:USF.COMPS:ANM:1,2013-04-01T19:36:00Z,27.5400,-82.7400,23.19,1111122 
COMPS,ioos:station:USF.COMPS:ANM:1,2013-04-01T19:42:00Z,27.5400,-82.7400,22.73,1111122 
COMPS,ioos:station:USF.COMPS:ANM:1,2013-04-01T19:48:00Z,27.5400,-82.7400,22.65,1111122 
COMPS,ioos:station:USF.COMPS:ANM:1,2013-04-01T19:54:00Z,27.5400,-82.7400,22.47,1111122 
COMPS,ioos:station:USF.COMPS:ANM:1,2013-04-01T20:00:00Z,27.5400,-82.7400,22.5,1111122 
COMPS,ioos:station:USF.COMPS:ANM:1,2013-04-01T20:06:00Z,27.5400,-82.7400,22.75,1111122 
COMPS,ioos:station:USF.COMPS:ANM:1,2013-04-01T20:12:00Z,27.5400,-82.7400,23.18,1111122 
COMPS,ioos:station:USF.COMPS:ANM:1,2013-04-01T20:18:00Z,27.5400,-82.7400,23.16,1111122 
COMPS,ioos:station:USF.COMPS:ANM:1,2013-04-01T20:24:00Z,27.5400,-82.7400,23.19,1111122 
COMPS,ioos:station:USF.COMPS:ANM:1,2013-04-01T20:30:00Z,27.5400,-82.7400,23.04,1111122 
COMPS,ioos:station:USF.COMPS:ANM:1,2013-04-01T20:36:00Z,27.5400,-82.7400,22.92,1111122 
COMPS,ioos:station:USF.COMPS:ANM:1,2013-04-01T20:42:00Z,27.5400,-82.7400,22.52,1111122 
COMPS,ioos:station:USF.COMPS:ANM:1,2013-04-01T20:48:00Z,27.5400,-82.7400,22.32,1111122 
COMPS,ioos:station:USF.COMPS:ANM:1,2013-04-01T20:54:00Z,27.5400,-82.7400,22.32,1111122 
COMPS,ioos:station:USF.COMPS:ANM:1,2013-04-01T21:00:00Z,27.5400,-82.7400,22.76,1111122 
COMPS,ioos:station:USF.COMPS:ANM:1,2013-04-01T21:06:00Z,27.5400,-82.7400,22.69,1111122 
COMPS,ioos:station:USF.COMPS:ANM:1,2013-04-01T21:12:00Z,27.5400,-82.7400,22.56,1111122 
COMPS,ioos:station:USF.COMPS:ANM:1,2013-04-01T21:18:00Z,27.5400,-82.7400,22.65,1111122 
COMPS,ioos:station:USF.COMPS:ANM:1,2013-04-01T21:24:00Z,27.5400,-82.7400,22.48,1111122 
COMPS,ioos:station:USF.COMPS:ANM:1,2013-04-01T21:30:00Z,27.5400,-82.7400,22.34,1111122 
COMPS,ioos:station:USF.COMPS:ANM:1,2013-04-01T21:36:00Z,27.5400,-82.7400,22.54,1111122 
COMPS,ioos:station:USF.COMPS:ANM:1,2013-04-01T21:42:00Z,27.5400,-82.7400,22.66,1111122 
COMPS,ioos:station:USF.COMPS:ANM:1,2013-04-01T21:48:00Z,27.5400,-82.7400,22.6,1111122 
COMPS,ioos:station:USF.COMPS:ANM:1,2013-04-01T21:54:00Z,27.5400,-82.7400,22.63,1111122 
COMPS,ioos:station:USF.COMPS:ANM:1,2013-04-01T22:00:00Z,27.5400,-82.7400,22.6,1111122 
COMPS,ioos:station:USF.COMPS:ANM:1,2013-04-01T22:06:00Z,27.5400,-82.7400,22.49,1111122 
COMPS,ioos:station:USF.COMPS:ANM:1,2013-04-01T22:12:00Z,27.5400,-82.7400,22.52,1111122 
COMPS,ioos:station:USF.COMPS:ANM:1,2013-04-01T22:18:00Z,27.5400,-82.7400,22.21,1111122 
COMPS,ioos:station:USF.COMPS:ANM:1,2013-04-01T22:24:00Z,27.5400,-82.7400,22.07,1111122 
COMPS,ioos:station:USF.COMPS:ANM:1,2013-04-01T22:30:00Z,27.5400,-82.7400,22.05,1111122 
COMPS,ioos:station:USF.COMPS:ANM:1,2013-04-01T22:36:00Z,27.5400,-82.7400,22.22,1111122 
COMPS,ioos:station:USF.COMPS:ANM:1,2013-04-01T22:42:00Z,27.5400,-82.7400,21.56,1111122 
COMPS,ioos:station:USF.COMPS:ANM:1,2013-04-01T22:48:00Z,27.5400,-82.7400,21.46,1111122 
COMPS,ioos:station:USF.COMPS:ANM:1,2013-04-01T22:54:00Z,27.5400,-82.7400,21.19,1111122 
COMPS,ioos:station:USF.COMPS:ANM:1,2013-04-01T23:00:00Z,27.5400,-82.7400,21.08,1111122 
COMPS,ioos:station:USF.COMPS:ANM:1,2013-04-01T23:06:00Z,27.5400,-82.7400,20.97,1111122 
COMPS,ioos:station:USF.COMPS:ANM:1,2013-04-01T23:12:00Z,27.5400,-82.7400,21.01,1111122 
COMPS,ioos:station:USF.COMPS:ANM:1,2013-04-01T23:18:00Z,27.5400,-82.7400,20.99,1111122 
COMPS,ioos:station:USF.COMPS:ANM:1,2013-04-01T23:24:00Z,27.5400,-82.7400,21.0,1111122 
COMPS,ioos:station:USF.COMPS:ANM:1,2013-04-01T23:30:00Z,27.5400,-82.7400,20.99,1111122 
COMPS,ioos:station:USF.COMPS:ANM:1,2013-04-01T23:36:00Z,27.5400,-82.7400,21.06,1111122 
COMPS,ioos:station:USF.COMPS:ANM:1,2013-04-01T23:42:00Z,27.5400,-82.7400,20.83,1111122 
COMPS,ioos:station:USF.COMPS:ANM:1,2013-04-01T23:48:00Z,27.5400,-82.7400,20.91,1111122 
COMPS,ioos:station:USF.COMPS:ANM:1,2013-04-01T23:54:00Z,27.5400,-82.7400,20.81,1111122 
COMPS,ioos:station:USF.COMPS:ANM:1,2013-04-02T00:00:00Z,27.5400,-82.7400,20.8,1111122 
COMPS,ioos:station:USF.COMPS:ANM:1,2013-04-02T00:06:00Z,27.5400,-82.7400,20.58,1111122 
COMPS,ioos:station:USF.COMPS:ANM:1,2013-04-02T00:12:00Z,27.5400,-82.7400,20.37,1111122 
COMPS,ioos:station:USF.COMPS:ANM:1,2013-04-02T00:18:00Z,27.5400,-82.7400,20.24,1111122 
COMPS,ioos:station:USF.COMPS:ANM:1,2013-04-02T00:24:00Z,27.5400,-82.7400,20.25,1111122 
COMPS,ioos:station:USF.COMPS:ANM:1,2013-04-02T00:30:00Z,27.5400,-82.7400,20.24,1111122 
COMPS,ioos:station:USF.COMPS:ANM:1,2013-04-02T00:36:00Z,27.5400,-82.7400,20.13,1111122 
COMPS,ioos:station:USF.COMPS:ANM:1,2013-04-02T00:42:00Z,27.5400,-82.7400,20.12,1111122 
COMPS,ioos:station:USF.COMPS:ANM:1,2013-04-02T00:48:00Z,27.5400,-82.7400,20.11,1111122 
COMPS,ioos:station:USF.COMPS:ANM:1,2013-04-02T00:54:00Z,27.5400,-82.7400,20.11,1111122 
COMPS,ioos:station:USF.COMPS:ANM:1,2013-04-02T02:00:00Z,27.5400,-82.7400,19.9,1111122 
COMPS,ioos:station:USF.COMPS:ANM:1,2013-04-02T04:00:00Z,27.5400,-82.7400,19.7,1111122 
COMPS,ioos:station:USF.COMPS:ANM:1,2013-04-02T04:06:00Z,27.5400,-82.7400,19.74,1111122 
COMPS,ioos:station:USF.COMPS:ANM:1,2013-04-02T04:12:00Z,27.5400,-82.7400,19.74,1111122 
COMPS,ioos:station:USF.COMPS:ANM:1,2013-04-02T04:18:00Z,27.5400,-82.7400,19.71,1111122 
COMPS,ioos:station:USF.COMPS:ANM:1,2013-04-02T04:24:00Z,27.5400,-82.7400,19.65,1111122 
COMPS,ioos:station:USF.COMPS:ANM:1,2013-04-02T04:30:00Z,27.5400,-82.7400,19.61,1111122 
COMPS,ioos:station:USF.COMPS:ANM:1,2013-04-02T04:36:00Z,27.5400,-82.7400,19.61,1111122 
COMPS,ioos:station:USF.COMPS:ANM:1,2013-04-02T04:42:00Z,27.5400,-82.7400,19.57,1111122 
COMPS,ioos:station:USF.COMPS:ANM:1,2013-04-02T04:48:00Z,27.5400,-82.7400,19.48,1111122 
COMPS,ioos:station:USF.COMPS:ANM:1,2013-04-02T04:54:00Z,27.5400,-82.7400,19.48,1111122 
COMPS,ioos:station:USF.COMPS:ANM:1,2013-04-02T05:00:00Z,27.5400,-82.7400,19.5,1111122 
COMPS,ioos:station:USF.COMPS:ANM:1,2013-04-02T05:06:00Z,27.5400,-82.7400,19.48,1111122 
COMPS,ioos:station:USF.COMPS:ANM:1,2013-04-02T05:12:00Z,27.5400,-82.7400,19.47,1111122 
COMPS,ioos:station:USF.COMPS:ANM:1,2013-04-02T05:18:00Z,27.5400,-82.7400,19.36,1111122 
COMPS,ioos:station:USF.COMPS:ANM:1,2013-04-02T05:24:00Z,27.5400,-82.7400,19.22,1111122 
COMPS,ioos:station:USF.COMPS:ANM:1,2013-04-02T05:30:00Z,27.5400,-82.7400,19.22,1111122 
COMPS,ioos:station:USF.COMPS:ANM:1,2013-04-02T05:36:00Z,27.5400,-82.7400,19.22,1111122 
COMPS,ioos:station:USF.COMPS:ANM:1,2013-04-02T05:42:00Z,27.5400,-82.7400,19.22,1111122 
COMPS,ioos:station:USF.COMPS:ANM:1,2013-04-02T05:48:00Z,27.5400,-82.7400,19.26,1111122 
COMPS,ioos:station:USF.COMPS:ANM:1,2013-04-02T05:54:00Z,27.5400,-82.7400,19.28,1111122 
COMPS,ioos:station:USF.COMPS:ANM:1,2013-04-02T06:00:00Z,27.5400,-82.7400,19.3,1111122 